THY1593 LTFM-EDDF

Flight info

Callsign THY1593
Flight time N/A
Altitude 36000
Route TUDBU Q26 ETUBA DCT NAVOD DCT MOPUG/N0465F380 DCT ARSIN DCT SUBEN DCT AKINI T161 DEBHI DEBHI1C
Aircraft B763/H-SDE3FGHIM3RWXY/LB1

Departure

Time 2026-02-19 11:47
Airport İstanbul Airport (LTFM)

Arrival

Time N/A
Airport Frankfurt Main Airport (EDDF)
Time Latitude Longitude Altitude Speed Heading
2026-02-19 11:06 41.26338 28.73985 300 ft 0 kts 178°
2026-02-19 11:32 41.26358 28.73984 300 ft 2 kts 174°
2026-02-19 11:32 41.26373 28.73979 300 ft 2 kts 149°
2026-02-19 11:33 41.26385 28.73966 300 ft 2 kts 131°
2026-02-19 11:33 41.26393 28.73950 300 ft 2 kts 112°
2026-02-19 11:33 41.26398 28.73930 300 ft 1 kts 94°
2026-02-19 11:33 41.26398 28.73921 300 ft 1 kts 86°
2026-02-19 11:34 41.26398 28.73917 300 ft 0 kts 88°
2026-02-19 11:36 41.26398 28.73931 300 ft 3 kts 88°
2026-02-19 11:37 41.26402 28.73982 300 ft 6 kts 72°
2026-02-19 11:37 41.26438 28.74020 300 ft 7 kts 13°
2026-02-19 11:37 41.26500 28.74024 300 ft 9 kts
2026-02-19 11:37 41.26576 28.74022 300 ft 11 kts 358°
2026-02-19 11:38 41.26666 28.74018 300 ft 13 kts 358°
2026-02-19 11:38 41.26767 28.74015 300 ft 15 kts 359°
2026-02-19 11:38 41.26882 28.74012 300 ft 17 kts 356°
2026-02-19 11:38 41.26952 28.73899 299 ft 18 kts 274°
2026-02-19 11:39 41.26953 28.73723 299 ft 19 kts 269°
2026-02-19 11:39 41.26950 28.73536 299 ft 20 kts 269°
2026-02-19 11:39 41.26947 28.73335 299 ft 22 kts 269°
2026-02-19 11:39 41.26945 28.73156 300 ft 14 kts 269°
2026-02-19 11:40 41.26957 28.73034 302 ft 13 kts 306°
2026-02-19 11:40 41.27196 28.72991 294 ft 22 kts 360°
2026-02-19 11:40 41.27375 28.72986 287 ft 28 kts 358°
2026-02-19 11:41 41.27592 28.72981 279 ft 33 kts
2026-02-19 11:41 41.27845 28.72974 269 ft 38 kts 358°
2026-02-19 11:41 41.28122 28.72968 262 ft 39 kts 360°
2026-02-19 11:41 41.28395 28.72965 255 ft 39 kts 358°
2026-02-19 11:42 41.28653 28.72959 248 ft 27 kts 359°
2026-02-19 11:42 41.28847 28.72955 242 ft 28 kts 359°
2026-02-19 11:42 41.29048 28.72951 237 ft 28 kts 360°
2026-02-19 11:42 41.29250 28.72947 231 ft 29 kts 359°
2026-02-19 11:43 41.29463 28.72940 225 ft 30 kts 359°
2026-02-19 11:43 41.29627 28.72937 221 ft 21 kts 359°
2026-02-19 11:43 41.29759 28.72935 218 ft 13 kts 360°
2026-02-19 11:43 41.29818 28.72933 217 ft 8 kts 352°
2026-02-19 11:44 41.29863 28.72888 216 ft 8 kts 294°
2026-02-19 11:44 41.29874 28.72747 216 ft 7 kts 272°
2026-02-19 11:44 41.29875 28.72679 216 ft 7 kts 270°
2026-02-19 11:45 41.29874 28.72607 216 ft 7 kts 269°
2026-02-19 11:45 41.29873 28.72528 216 ft 9 kts 268°
2026-02-19 11:45 41.29840 28.72468 216 ft 8 kts 198°
2026-02-19 11:45 41.29789 28.72463 218 ft 1 kts 181°
2026-02-19 11:46 41.29670 28.72463 220 ft 50 kts 180°
2026-02-19 11:46 41.29083 28.72476 236 ft 110 kts 179°
2026-02-19 11:47 41.28153 28.72492 277 ft 154 kts 180°
2026-02-19 11:47 41.27027 28.72568 632 ft 169 kts 173°
2026-02-19 11:47 41.25858 28.73035 1115 ft 178 kts 163°
2026-02-19 11:47 41.24649 28.73435 1583 ft 181 kts 173°
2026-02-19 11:48 41.23381 28.73548 2118 ft 183 kts 180°
2026-02-19 11:48 41.20762 28.73332 3109 ft 195 kts 186°
2026-02-19 11:48 41.19421 28.72981 3629 ft 200 kts 202°
2026-02-19 11:49 41.18405 28.71731 4225 ft 206 kts 240°
2026-02-19 11:49 41.18121 28.69838 4869 ft 213 kts 265°
2026-02-19 11:49 41.18116 28.67814 5338 ft 223 kts 265°
2026-02-19 11:49 41.18093 28.65709 5799 ft 234 kts 265°
2026-02-19 11:50 41.18067 28.63480 6215 ft 250 kts 266°
2026-02-19 11:50 41.18041 28.61104 6693 ft 264 kts 266°
2026-02-19 11:50 41.18280 28.58608 7162 ft 283 kts 289°
2026-02-19 11:50 41.19361 28.56370 7655 ft 293 kts 317°
2026-02-19 11:51 41.21103 28.54963 8133 ft 292 kts 345°
2026-02-19 11:51 41.23082 28.54707 8610 ft 288 kts
2026-02-19 11:51 41.25079 28.54974 9080 ft 290 kts
2026-02-19 11:51 41.27110 28.54997 9619 ft 288 kts
2026-02-19 11:52 41.29105 28.55030 10226 ft 291 kts
2026-02-19 11:52 41.33318 28.55146 11266 ft 314 kts
2026-02-19 11:52 41.35554 28.55214 11744 ft 328 kts
2026-02-19 11:53 41.37882 28.55285 12220 ft 342 kts
2026-02-19 11:53 41.40316 28.55360 12693 ft 356 kts
2026-02-19 11:53 41.42870 28.55188 13160 ft 374 kts 353°
2026-02-19 11:53 41.45385 28.54112 13646 ft 391 kts 337°
2026-02-19 11:54 41.47723 28.52095 14195 ft 405 kts 321°
2026-02-19 11:54 41.49702 28.49399 14738 ft 410 kts 313°
2026-02-19 11:54 41.51651 28.46556 15363 ft 413 kts 314°
2026-02-19 11:55 41.55571 28.40891 16789 ft 423 kts 314°
2026-02-19 11:55 41.57612 28.37970 17482 ft 429 kts 314°
2026-02-19 11:55 41.59675 28.35034 18170 ft 434 kts 314°
2026-02-19 11:55 41.61762 28.32106 18847 ft 439 kts 314°
2026-02-19 11:56 41.63905 28.29118 19533 ft 443 kts 313°
2026-02-19 11:56 41.68219 28.23074 20899 ft 452 kts 313°
2026-02-19 11:56 41.70379 28.20042 21574 ft 456 kts 313°
2026-02-19 11:57 41.72589 28.16935 22260 ft 459 kts 312°
2026-02-19 11:57 41.74807 28.13813 22943 ft 462 kts 312°
2026-02-19 11:57 41.77039 28.10668 23628 ft 464 kts 312°
2026-02-19 11:57 41.79278 28.07510 24311 ft 467 kts 312°
2026-02-19 11:58 41.81528 28.04332 24924 ft 471 kts 311°
2026-02-19 11:58 41.83825 28.01084 25282 ft 480 kts 311°
2026-02-19 11:58 41.86152 27.97790 25942 ft 482 kts 311°
2026-02-19 11:58 41.88485 27.94485 26527 ft 486 kts 311°
2026-02-19 11:59 41.90837 27.91149 27122 ft 489 kts 311°
2026-02-19 11:59 41.93181 27.87820 27708 ft 493 kts 311°
2026-02-19 11:59 41.95551 27.84450 28274 ft 496 kts 311°
2026-02-19 11:59 41.97946 27.81041 28860 ft 499 kts 311°
2026-02-19 12:00 42.00319 27.77660 29561 ft 498 kts 311°
2026-02-19 12:00 42.05050 27.70908 31157 ft 490 kts 310°
2026-02-19 12:00 42.07376 27.67583 31912 ft 486 kts 310°
2026-02-19 12:01 42.09690 27.64269 32616 ft 483 kts 310°
2026-02-19 12:01 42.12010 27.60944 33289 ft 480 kts 310°
2026-02-19 12:01 42.14290 27.57672 33927 ft 476 kts 310°
2026-02-19 12:01 42.16584 27.54378 34501 ft 474 kts 310°
2026-02-19 12:02 42.18840 27.51131 34990 ft 473 kts 310°
2026-02-19 12:02 42.21105 27.47870 35473 ft 472 kts 310°
2026-02-19 12:02 42.23347 27.44638 35916 ft 471 kts 310°
2026-02-19 12:02 42.25574 27.41425 36315 ft 470 kts 310°
2026-02-19 12:03 42.27813 27.38189 36661 ft 470 kts 310°
2026-02-19 12:03 42.30045 27.34962 37003 ft 470 kts 309°
2026-02-19 12:03 42.32293 27.31706 37335 ft 469 kts 309°
2026-02-19 12:03 42.34533 27.28460 37636 ft 469 kts 309°
2026-02-19 12:04 42.36774 27.25208 37922 ft 469 kts 309°
2026-02-19 12:04 42.41260 27.18686 38178 ft 469 kts 309°
2026-02-19 12:04 42.43474 27.15464 38181 ft 468 kts 309°
2026-02-19 12:05 42.47932 27.08960 38098 ft 467 kts 309°
2026-02-19 12:05 42.52304 27.02572 38099 ft 458 kts 309°
2026-02-19 12:06 42.56632 26.96231 38101 ft 454 kts 310°
2026-02-19 12:06 42.60900 26.89963 38100 ft 451 kts 310°
2026-02-19 12:07 42.65143 26.83721 38097 ft 449 kts 311°
2026-02-19 12:07 42.69413 26.77426 38091 ft 450 kts 311°
2026-02-19 12:08 42.75780 26.68012 38080 ft 449 kts 311°
2026-02-19 12:09 42.80000 26.61755 38073 ft 450 kts 311°
2026-02-19 12:09 42.84156 26.55306 38073 ft 449 kts 309°
2026-02-19 12:10 42.88233 26.48797 38072 ft 449 kts 309°
2026-02-19 12:10 42.92332 26.42244 38069 ft 453 kts 309°
2026-02-19 12:11 42.96462 26.35629 38069 ft 456 kts 309°
2026-02-19 12:11 43.00590 26.29003 38072 ft 459 kts 308°
2026-02-19 12:12 43.04766 26.22285 38074 ft 462 kts 308°
2026-02-19 12:12 43.11048 26.12148 38076 ft 462 kts 308°
2026-02-19 12:13 43.15227 26.05386 38073 ft 462 kts 308°
2026-02-19 12:13 43.19397 25.98620 38073 ft 460 kts 308°
2026-02-19 12:14 43.23542 25.91883 38066 ft 461 kts 308°
2026-02-19 12:14 43.27709 25.85093 38070 ft 461 kts 308°
2026-02-19 12:15 43.31860 25.78315 38071 ft 462 kts 308°
2026-02-19 12:15 43.36015 25.71510 38073 ft 462 kts 308°
2026-02-19 12:16 43.42225 25.61313 38073 ft 461 kts 308°
2026-02-19 12:17 43.46361 25.54504 38083 ft 460 kts 308°
2026-02-19 12:17 43.50466 25.47725 38068 ft 461 kts 308°
2026-02-19 12:18 43.54589 25.40906 38066 ft 462 kts 308°
2026-02-19 12:18 43.58724 25.34047 38076 ft 462 kts 307°
2026-02-19 12:19 43.62819 25.27243 38082 ft 460 kts 307°
2026-02-19 12:19 43.66952 25.20354 38068 ft 460 kts 307°
2026-02-19 12:20 43.71037 25.13532 38077 ft 461 kts 307°
2026-02-19 12:20 43.77188 25.03227 38078 ft 460 kts 307°
2026-02-19 12:21 43.81282 24.96349 38076 ft 459 kts 307°
2026-02-19 12:21 43.85369 24.89467 38070 ft 459 kts 307°
2026-02-19 12:22 43.89455 24.82568 38078 ft 460 kts 307°
2026-02-19 12:22 43.93521 24.75686 38077 ft 459 kts 307°
2026-02-19 12:23 43.97578 24.68805 38076 ft 460 kts 307°
2026-02-19 12:23 44.01619 24.61935 38075 ft 459 kts 307°
2026-02-19 12:24 44.07717 24.51535 38075 ft 459 kts 307°
2026-02-19 12:25 44.11757 24.44625 38067 ft 458 kts 307°
2026-02-19 12:25 44.15807 24.37680 38058 ft 460 kts 307°
2026-02-19 12:26 44.19859 24.30719 38056 ft 459 kts 306°
2026-02-19 12:26 44.23882 24.23784 38050 ft 459 kts 306°
2026-02-19 12:27 44.27946 24.16766 38051 ft 459 kts 306°
2026-02-19 12:27 44.31958 24.09821 38044 ft 459 kts 306°
2026-02-19 12:28 44.35989 24.02826 38048 ft 459 kts 306°
2026-02-19 12:28 44.42026 23.92316 38045 ft 458 kts 306°
2026-02-19 12:29 44.46033 23.85321 38049 ft 458 kts 306°
2026-02-19 12:29 44.50004 23.78371 38049 ft 458 kts 306°
2026-02-19 12:30 44.54009 23.71341 38045 ft 460 kts 306°
2026-02-19 12:30 44.58016 23.64293 38043 ft 459 kts 306°
2026-02-19 12:31 44.61997 23.57275 38048 ft 459 kts 306°